Vertical_Velocity
-1 -1 -0 -0 -1 -1 -1 -2 -2 -2 -1 -1 -1 -1 -1 -1 -1 -0 -0 -0 -0 -0 0 0 -0 -1 -1 -1 -0 1 2 5 5 4 5 2 1 0 -2 1 6 8 6 4 2 1 1 1 0 0 1 2 2 2 1 0 -0 -0 -1 -0 0 1 1 -0 -1 -1 -2 -0 -0 -1 1 5 5 2 -0 -0 1 1 -0 1 1 2 2 1 0 0 0 0 -0 -1 -1 -1 -1 -2 -3 -2 -2 -1 -1 -1 -1 -1 -1
-2 -2 -1 -0 -0 -0 -1 -1 -1 -1 -1 -1 -1 -1 -1 -1 -1 -0 -0 0 0 0 0 -0 -1 -1 -2 -1 -0 0 -0 0 1 2 3 6 7 6 1 -1 -1 2 6 6 4 2 2 1 0 -0 0 1 2 2 2 1 0 -0 -1 -1 -0 1 1 1 -0 -1 -2 -0 -1 -1 1 4 4 2 2 0 -1 -1 -1 0 1 2 2 2 1 0 0 -0 -0 -0 -0 -0 -1 -1 -1 -1 -2 -2 -2 -1 -1 -1 -1
-2 -2 -2 -1 -0 0 0 -0 -1 -1 -1 -1 -1 -1 -1 -1 -1 -1 -0 0 0 0 -0 -1 -1 -2 -2 -2 -1 -0 0 -1 -2 -1 1 5 7 8 7 6 2 -1 -1 2 4 4 3 1 -0 -0 -0 0 1 2 2 1 1 0 -1 -1 -1 -0 1 1 1 -1 -3 -2 -1 -1 -0 3 3 2 3 0 -1 0 2 1 1 2 3 3 2 1 -0 -1 -1 -0 -0 0 0 -0 -0 -0 -1 -2 -2 -2 -2 -2 -1
-2 -2 -2 -2 -1 -1 -0 0 -0 -0 -1 -1 -1 -1 -1 -1 -1 -1 -0 0 0 0 -0 -0 -1 -2 -2 -2 -2 -1 -1 -1 -1 -2 -2 1 3 4 6 7 7 4 -1 -1 0 2 1 1 0 -0 -1 -0 1 1 2 1 1 0 -0 -1 -1 -1 -0 1 1 -0 -2 -2 -2 -2 -2 3 3 2 3 1 -0 1 5 3 1 2 3 3 2 1 0 -2 -2 -1 -1 -1 -0 0 1 0 -0 -1 -1 -2 -2 -2 -1
-1 -2 -2 -2 -2 -1 -1 -0 0 0 -0 -0 -1 -1 -1 -1 -1 -1 -0 -0 0 0 -0 -0 -1 -1 -1 -1 -1 -1 -2 -2 -2 -3 -3 -2 -1 0 2 3 6 7 5 1 -0 -0 -0 -0 0 -0 -1 -0 0 1 1 1 1 1 0 0 -1 -1 -0 0 1 -0 -2 0 0 -1 -2 2 2 1 1 2 3 3 2 4 3 1 2 3 3 2 1 -0 -0 -0 -1 -1 -1 0 1 0 -0 -1 -0 -2 -2 -2 -1
-1 -1 -1 -2 -2 -2 -1 -1 -0 0 0 0 -0 -0 -1 -1 -1 -1 -1 -0 -0 -0 -0 -0 -1 -1 -1 -0 -0 -0 -1 -2 -3 -3 -3 -3 -2 1 5 4 3 3 5 3 0 -1 -0 -0 -0 -0 -0 -0 0 1 1 1 1 1 1 1 0 -0 -0 0 0 -0 -2 1 2 1 -0 1 1 2 3 1 2 4 2 2 4 5 3 3 2 2 2 2 2 1 0 -0 -1 -1 0 -0 -0 -1 -2 -2 -1 -1 -2
-1 -1 -1 -1 -2 -1 -1 -1 -1 -0 0 0 0 -0 -0 -1 -1 -0 -0 -1 -1 -1 -1 -1 -1 -1 -1 0 1 1 0 -1 -2 -3 -3 -4 -3 -2 -1 0 0 0 2 3 1 -1 -0 -0 -0 -0 -1 -0 0 1 1 2 1 0 0 1 1 1 0 1 0 0 -1 -0 1 2 -0 2 1 1 6 3 3 4 4 1 1 4 8 4 2 2 2 1 1 1 0 0 0 -0 -1 -1 -1 -1 -1 -1 -1 -1 -1
-2 -2 -1 -1 -1 -1 -1 -1 -1 -1 -0 0 0 0 -0 -0 -0 -0 -0 -1 -1 -2 -2 -2 -2 -1 -1 0 1 2 1 1 0 -1 -2 -2 -2 -2 -1 -1 -1 1 3 4 2 1 0 0 -0 -0 -1 -0 0 1 2 2 1 0 -0 1 1 1 1 1 1 1 0 -2 -0 2 0 4 2 0 2 3 3 2 3 1 -1 1 9 6 3 1 2 1 0 0 1 0 1 1 -1 -1 -0 -0 0 -0 -0 -0 -1
-2 -2 -2 -2 -1 -1 -1 -1 -1 -1 -1 -0 -0 -0 -0 -0 0 0 -0 -1 -2 -2 -2 -2 -2 -2 -1 1 1 2 1 1 1 0 -0 -1 3 6 6 3 1 1 1 3 3 2 1 1 0 -1 -1 -0 0 1 2 1 1 0 -1 0 1 1 1 1 1 1 1 -2 -2 -1 1 3 2 -0 0 3 1 0 3 3 1 0 4 7 5 1 1 -0 -0 0 1 1 1 1 0 -0 -0 0 1 0 0 -0 -0
-2 -3 -2 -2 -1 -1 -1 -1 -1 -1 -1 -0 -0 -1 -1 0 0 0 -0 -1 -2 -2 -2 -2 -2 -1 -0 1 1 1 1 1 1 1 1 1 4 8 11 9 7 6 7 7 8 7 4 2 1 -0 -1 -1 -0 0 1 0 0 0 -0 -0 -0 1 1 1 1 1 1 -1 -2 -3 -2 0 0 -0 1 3 3 3 3 5 3 0 -0 7 7 4 1 0 -0 -0 1 1 1 1 1 0 -0 0 1 1 0 0 -0
-2 -2 -2 -2 -2 -1 -1 -1 -1 -1 -1 -1 -1 -1 -1 0 0 0 -1 -2 -2 -2 -1 -1 -1 -1 -0 0 0 0 1 1 2 2 2 3 4 5 7 8 8 7 5 5 8 11 10 5 2 -0 -1 -1 -1 -0 -0 -0 0 0 -0 -1 -0 1 1 1 1 1 0 0 -1 -2 -3 -1 -1 -1 -1 0 3 4 2 5 3 1 1 3 7 8 2 1 0 -0 0 1 2 2 1 1 1 1 1 1 1 0 -0
-1 -1 -2 -2 -2 -2 -2 -1 -1 -1 -1 -0 -1 -1 -1 -0 0 0 -1 -1 -1 -1 -1 -1 -1 -1 -0 -0 -0 -0 1 1 1 2 3 3 1 -1 -1 0 0 -1 -3 -4 -3 0 7 7 4 0 -1 -2 -1 -1 -0 -0 0 0 0 0 0 1 1 1 1 0 -0 0 -0 -1 -3 -2 -1 -2 -3 -2 0 2 2 4 4 4 3 0 5 10 5 3 1 -0 0 1 2 2 1 2 1 1 1 2 1 1 0
0 -0 -1 -2 -2 -2 -2 -2 -1 -1 -1 -1 -1 -1 -1 -1 -0 -1 -1 -1 -0 -0 -0 -1 -1 -1 -0 -0 -0 -0 1 1 1 2 4 3 1 -1 -4 -4 -3 -2 -3 -4 -5 -5 -2 4 5 3 1 -1 -1 -1 -0 0 0 0 0 1 1 1 1 1 1 0 -1 -1 -0 -1 -2 -3 -2 -2 -3 -2 -1 2 3 3 3 4 4 1 3 7 9 5 2 1 0 0 1 2 2 1 1 1 2 2 2 1 0
-0 -0 -1 -2 -2 -2 -2 -2 -2 -2 -1 -1 -1 -1 -1 -1 -1 -1 -1 -0 0 0 -0 -0 -0 -0 0 0 0 0 0 1 2 2 2 1 2 2 0 -2 -2 -2 -2 -2 -2 -2 -3 -1 2 4 4 1 -0 -1 1 1 0 0 0 2 2 1 1 1 0 -0 -1 -1 0 1 -0 -2 -2 -2 -1 -2 -1 -0 1 3 3 2 4 2 1 3 8 6 4 2 1 0 0 1 1 1 1 2 2 2 2 2 1
-1 -1 -1 -1 -1 -2 -2 -2 -2 -2 -2 -2 -2 -2 -2 -1 -1 -1 -1 0 0 0 0 -0 -0 0 0 1 0 -0 -1 1 2 2 1 1 2 2 3 1 -1 -1 -1 -1 -1 -1 -1 -2 -2 -0 3 3 2 1 1 1 0 0 1 2 2 2 1 1 -0 -1 -1 2 4 4 1 -1 -2 -1 -0 -1 -1 -1 -1 2 3 3 3 2 1 0 1 3 3 2 1 0 -0 0 0 0 1 1 2 2 2 2 2
-2 -1 -1 -1 -1 -1 -2 -2 -2 -2 -2 -2 -2 -2 -2 -1 -0 -0 -0 -0 0 0 0 -0 0 0 0 1 0 -1 -1 -0 1 2 3 2 1 1 1 2 2 1 0 0 -1 -1 -1 -1 -2 -2 -1 2 2 1 0 0 0 0 2 2 2 2 1 0 -0 -0 3 6 6 5 2 1 -0 -1 -1 -0 -1 -1 -1 -0 2 3 3 2 1 1 -1 0 2 2 1 0 0 -0 -0 -0 0 1 1 1 2 2 2
-2 -2 -1 -1 -1 -1 -1 -2 -2 -2 -2 -2 -3 -3 -2 -1 -0 -0 -0 -0 -0 -0 -0 -0 0 0 1 1 0 -0 -1 -2 -1 1 4 4 3 1 0 1 2 3 2 2 0 -1 -1 -0 -0 -1 -1 0 1 0 -0 -0 -0 0 2 2 2 2 2 0 0 2 7 7 5 4 4 3 1 -1 -0 -1 -1 -1 -1 -1 -0 1 2 1 2 3 1 -0 1 2 0 1 0 -0 -0 -0 -0 0 1 1 1 2 2
-2 -1 -1 -1 -1 -1 -1 -1 -2 -2 -2 -2 -3 -2 -1 -1 -1 -0 -0 -0 -0 -0 -0 -0 0 1 1 1 0 0 -0 -1 -2 -1 2 4 4 3 1 1 2 3 3 2 0 -0 0 2 3 3 2 2 2 1 1 1 1 1 2 3 3 3 2 1 1 4 7 7 5 5 6 3 2 2 3 1 0 0 0 -1 -1 -0 1 1 2 3 3 2 0 -0 -1 -0 0 0 -0 -1 -1 -0 0 1 1 1 2
-2 -1 -1 -1 -1 -1 -1 -1 -1 -2 -2 -3 -3 -2 -1 -1 -1 -1 -1 -0 -0 -0 -0 -0 0 1 1 1 1 1 0 -0 -1 -2 -1 1 3 3 2 2 2 3 3 2 1 1 2 2 3 2 1 1 0 1 3 3 2 1 2 3 3 3 2 0 -0 2 6 8 7 7 7 5 5 5 6 4 4 4 3 1 -1 -1 -1 1 1 1 4 4 2 -0 -0 -1 -1 0 -0 -1 -1 -1 -0 0 1 1 1
-3 -3 -2 -2 -2 -2 -1 -1 -2 -2 -2 -3 -3 -3 -2 -1 -1 -1 -1 -1 -0 0 0 -0 -0 0 1 1 1 1 1 1 0 -1 -1 -1 0 2 2 2 2 2 3 2 2 2 2 1 -1 -3 -5 -4 -4 -2 1 1 1 1 2 2 2 2 2 0 -2 -1 8 9 9 8 8 7 5 3 2 4 4 3 1 1 0 -0 -1 2 2 2 4 6 4 2 1 -1 -1 0 0 -1 -1 -1 -1 0 0 1 1
-5 -4 -4 -4 -3 -3 -3 -3 -3 -3 -4 -3 -4 -4 -3 -3 -3 -3 -2 -2 -1 -0 -0 -0 -0 -0 0 1 1 2 2 1 1 1 0 -1 -1 -0 1 1 1 1 2 2 3 3 2 1 -0 -2 -3 -3 -3 -2 -1 -2 -2 -1 0 -1 -1 0 4 3 1 2 10 10 9 8 8 8 4 -1 -4 0 1 0 -1 0 1 1 -0 0 1 2 3 6 6 3 2 0 0 0 1 -0 -1 -1 -1 -0 0 0 1
-5 -5 -5 -5 -5 -5 -5 -5 -5 -5 -5 -5 -5 -4 -4 -5 -5 -4 -4 -4 -3 -2 -2 -2 -1 -1 -1 -1 0 1 1 1 1 1 1 0 -0 -0 0 1 0 0 1 2 3 2 1 1 1 1 -0 -1 -1 -1 0 0 -0 -1 -1 -1 -2 -1 1 1 2 6 10 9 8 8 8 8 4 -1 -6 -3 -0 2 3 2 3 3 3 1 0 0 2 5 6 5 3 2 1 1 1 0 0 -0 -1 -1 -0 0 1
-5 -5 -5 -5 -5 -6 -6 -6 -6 -6 -6 -6 -6 -5 -4 -4 -5 -5 -5 -5 -4 -4 -3 -3 -3 -2 -2 -1 -1 -0 0 0 0 -0 -0 0 0 1 1 1 0 0 1 2 2 1 1 1 2 2 1 0 -1 -1 1 2 3 1 -0 0 0 0 -1 -3 -0 5 9 8 8 8 8 7 5 2 -2 -1 2 5 6 5 4 5 6 5 3 2 3 5 6 5 3 3 3 3 1 1 1 0 -0 -1 -0 0 1
-5 -5 -5 -5 -5 -5 -6 -5 -5 -5 -6 -6 -6 -5 -4 -4 -4 -4 -5 -5 -5 -5 -4 -3 -3 -3 -3 -2 -1 -0 -0 1 1 0 -1 -0 0 1 1 1 0 0 1 1 1 0 0 2 3 3 1 0 -1 -1 0 2 3 3 2 2 2 1 1 -1 -0 2 6 7 8 9 8 7 6 5 3 2 4 6 7 4 3 3 5 7 6 5 5 6 7 7 5 3 3 3 1 1 1 1 0 -0 -0 0 1
-5 -5 -4 -5 -4 -4 -5 -5 -5 -5 -6 -6 -6 -5 -5 -4 -4 -3 -4 -5 -5 -5 -5 -4 -3 -3 -3 -2 -1 -0 0 1 1 2 1 0 0 0 1 1 1 0 -1 -1 -1 -1 -0 2 4 4 2 1 -1 -1 0 1 2 3 6 5 3 2 1 1 1 1 3 4 6 9 9 8 6 5 4 3 4 6 5 4 2 2 3 6 6 5 5 6 7 8 9 6 3 1 -1 -0 0 1 1 0 -0 -0 0
-5 -4 -4 -4 -4 -3 -4 -4 -4 -4 -5 -6 -5 -5 -5 -5 -4 -3 -3 -4 -4 -4 -4 -3 -3 -2 -2 -2 -2 -1 -0 -0 0 1 2 2 1 1 0 1 1 1 -1 -2 -3 -3 -2 1 4 4 4 2 0 -1 -1 -1 -1 0 6 5 4 3 1 1 1 1 1 2 4 7 10 9 7 5 3 4 4 5 4 3 1 1 1 4 4 4 5 6 7 7 10 10 7 2 -1 -0 0 0 0 0 0 -0 0
-7 -5 -4 -4 -4 -3 -3 -4 -4 -4 -5 -5 -4 -3 -4 -5 -5 -4 -4 -3 -4 -4 -4 -4 -3 -3 -2 -3 -2 -2 -2 -1 -1 -0 1 1 2 1 1 1 1 1 1 -2 -4 -5 -3 -1 1 3 5 5 3 -0 -2 -4 -5 -4 0 2 3 3 2 1 1 0 -1 2 3 5 9 10 8 5 3 4 4 3 2 3 2 2 -0 2 3 2 2 6 7 7 8 11 10 6 1 2 1 0 -0 0 0 -0 -0
-8 -6 -5 -4 -4 -3 -3 -3 -3 -4 -6 -5 -4 -2 -3 -5 -6 -5 -4 -4 -4 -4 -4 -5 -4 -4 -3 -3 -3 -3 -3 -3 -2 -1 -0 0 1 1 1 1 1 1 2 -0 -3 -3 -1 -1 -1 0 3 5 5 2 -1 -4 -6 -7 -5 -2 1 3 3 2 2 1 0 1 1 2 4 7 6 5 4 4 4 3 2 3 4 3 2 3 3 1 -3 2 5 6 6 7 8 8 5 4 3 2 0 -0 -0 -0 -0
-7 -7 -6 -5 -4 -4 -3 -3 -3 -4 -6 -5 -4 -2 -2 -3 -4 -5 -6 -5 -4 -4 -3 -4 -4 -4 -3 -3 -3 -3 -3 -4 -3 -2 -1 -1 0 1 1 1 2 2 2 0 -0 0 1 -0 -2 -2 -1 3 4 4 1 -1 -3 -5 -5 -2 0 2 3 2 3 4 6 3 2 2 1 1 2 3 4 5 5 4 3 4 4 3 3 4 4 2 -2 2 3 4 6 7 7 6 7 6 4 3 1 0 0 0 -0
-6 -7 -7 -5 -4 -4 -3 -3 -3 -3 -6 -5 -3 -2 -3 -3 -3 -4 -6 -5 -5 -4 -4 -3 -3 -3 -3 -3 -3 -3 -2 -3 -4 -3 -2 -1 -1 -0 0 1 1 2 2 1 2 2 1 0 -1 -3 -5 -2 1 2 1 0 -0 -1 -3 -1 1 2 1 1 2 5 8 5 4 5 6 3 2 2 4 6 6 6 5 5 4 3 4 3 2 1 2 5 6 6 6 8 8 7 7 7 6 5 2 1 1 0 0
-4 -5 -6 -5 -5 -4 -4 -3 -2 -3 -6 -4 -3 -2 -3 -3 -2 -2 -3 -4 -5 -6 -6 -5 -4 -4 -4 -3 -3 -3 -2 -3 -3 -3 -3 -3 -2 -1 -0 -0 0 1 2 2 1 1 1 1 -1 -3 -6 -6 -4 -1 1 1 2 1 -1 -0 2 3 4 4 4 4 6 6 5 4 6 6 6 5 4 5 6 6 6 5 3 3 4 3 0 -2 1 4 6 7 6 8 9 9 7 7 8 8 4 3 2 1 1
-2 -3 -4 -5 -5 -5 -5 -3 -3 -4 -6 -3 -2 -2 -2 -2 -1 -1 -2 -2 -3 -4 -5 -5 -5 -4 -4 -3 -3 -3 -3 -3 -3 -3 -4 -3 -3 -2 -1 -1 -1 -0 1 1 1 1 1 1 0 -1 -4 -5 -5 -4 -1 -0 -1 -2 -3 0 1 2 5 7 8 7 6 6 6 7 8 7 7 7 6 4 4 4 4 4 4 4 4 3 1 -1 0 1 1 2 2 5 7 8 7 7 9 10 9 5 2 1 0
-2 -2 -3 -3 -4 -4 -4 -2 -4 -6 -6 -3 -2 -2 -2 -1 -1 -0 -1 -1 -1 -1 -2 -3 -3 -3 -3 -2 -2 -2 -2 -2 -2 -3 -4 -3 -3 -3 -3 -2 -1 -0 0 -0 0 0 0 -0 0 1 -0 -2 -4 -5 -3 -2 -2 -3 -4 1 1 0 1 4 5 5 4 4 5 8 11 10 9 9 9 6 4 2 2 3 4 4 3 3 2 1 0 1 -0 -2 -1 2 3 5 6 7 8 11 14 9 5 2 -0
-2 -2 -2 -2 -2 -3 -1 -1 -4 -7 -6 -4 -3 -3 -2 -2 -1 -0 -0 -0 0 1 -0 -1 -2 -2 -2 -1 -1 -1 -1 -1 -1 -2 -3 -3 -2 -3 -4 -3 -2 -1 -1 0 0 0 -0 -0 -0 0 1 -1 -3 -5 -5 -2 -1 -1 -2 1 2 -0 -4 1 5 7 4 1 2 5 10 10 10 9 9 6 3 2 1 2 3 4 3 2 2 1 1 2 2 0 -0 1 1 2 3 5 7 9 14 14 10 6 1
-1 -2 -2 -2 -2 -1 0 -1 -4 -6 -6 -5 -5 -4 -3 -2 -2 -1 -1 -1 -1 -0 0 -0 -1 -2 -2 -1 -1 -1 -0 -0 -0 -1 -1 -2 -2 -2 -3 -3 -3 -3 -2 -0 1 1 0 -0 -0 -0 -0 -0 -1 -3 -5 -2 -0 -0 -0 2 1 -2 -7 -2 4 6 3 -1 -1 2 5 7 9 9 8 3 -0 -1 1 1 2 3 3 2 2 2 2 2 2 2 3 1 0 -0 2 3 5 7 11 16 15 11 5
-1 -1 -2 -2 -2 -1 1 -1 -3 -4 -5 -5 -5 -5 -4 -3 -3 -3 -2 -2 -2 -3 -2 -1 -1 -2 -3 -4 -3 -3 -2 -2 -1 -1 -1 -2 -2 -2 -2 -2 -2 -3 -3 -2 -0 0 1 1 0 -1 -1 -0 -1 -3 -7 -5 -3 -1 -0 1 0 -2 -5 -1 2 3 -1 -3 -0 4 7 7 9 11 13 6 1 -1 -1 1 2 3 3 3 3 4 4 3 2 2 3 2 1 1 4 3 3 4 9 16 17 14 9
-2 -2 -1 -2 -1 -1 -0 -2 -2 -3 -4 -4 -4 -5 -5 -5 -5 -4 -3 -3 -3 -4 -4 -4 -3 -2 -3 -4 -5 -6 -6 -5 -4 -3 -3 -2 -2 -2 -2 -2 -3 -3 -3 -2 -2 -2 -1 1 1 0 -1 -0 -0 -2 -6 -9 -6 -3 -1 1 1 0 -1 0 2 1 -2 -1 3 8 10 9 10 13 17 14 8 2 -0 3 4 4 4 4 5 6 5 5 4 4 3 2 1 2 4 3 2 1 4 10 13 13 12
-2 -2 -2 -1 -1 -0 -1 -2 -2 -2 -3 -2 -2 -3 -4 -5 -5 -4 -4 -3 -4 -4 -5 -5 -4 -2 -2 -2 -4 -5 -6 -6 -5 -5 -4 -4 -4 -3 -2 -2 -3 -4 -3 -2 -3 -3 -2 0 1 1 1 0 0 -0 0 -7 -7 -4 -1 1 2 1 -1 1 2 3 1 4 8 10 8 7 8 10 14 15 12 7 2 3 4 5 3 4 6 7 7 7 7 7 5 3 2 1 2 2 1 -1 0 4 6 8 10
-2 -2 -2 -2 -1 -1 -1 -1 -2 -2 -2 -1 -1 -1 -2 -3 -3 -3 -3 -4 -4 -4 -4 -5 -5 -5 -2 -2 -2 -3 -4 -5 -5 -5 -5 -4 -4 -3 -3 -3 -3 -3 -3 -3 -4 -3 -1 -1 0 0 1 1 1 1 3 -2 -4 -5 -4 -1 1 2 -2 -0 2 3 3 7 10 11 7 4 5 7 10 13 13 10 5 3 4 6 5 4 5 7 8 8 9 8 7 5 4 3 2 1 -1 -1 -0 1 4 6 6
-1 -1 -2 -1 -1 -1 -1 -1 -2 -2 -2 -1 -1 -1 -1 -1 -2 -3 -3 -4 -5 -4 -3 -3 -5 -8 -7 -4 -3 -3 -3 -3 -4 -5 -6 -4 -3 -3 -3 -3 -3 -3 -2 -4 -4 -4 -2 -2 -1 0 2 1 1 1 2 3 1 -4 -8 -6 -1 2 -0 -2 -0 2 2 5 7 8 5 2 1 1 3 7 9 9 6 4 4 5 6 5 4 5 7 8 8 7 6 5 5 6 5 2 1 1 2 3 5 6 4
-1 -1 -1 -1 -1 -1 -1 -2 -2 -2 -2 -1 -1 -1 -1 -1 -1 -2 -3 -3 -5 -5 -2 1 -1 -6 -9 -7 -6 -4 -4 -3 -3 -4 -6 -5 -4 -3 -3 -3 -2 -2 -3 -3 -3 -3 -3 -3 -2 -1 1 2 1 1 1 4 4 1 -5 -6 -4 0 3 1 -0 -0 0 2 4 5 5 3 -0 -3 -4 -1 3 6 6 4 3 3 5 5 5 5 5 6 6 5 4 5 6 6 6 5 4 4 4 3 4 6 6
-2 -1 -1 -1 -1 -1 -1 -1 -2 -2 -2 -2 -2 -2 -1 -0 -1 -1 -2 -2 -3 -4 -2 2 3 0 -7 -8 -7 -6 -5 -3 -2 -2 -5 -6 -6 -4 -3 -3 -2 -2 -3 -3 -3 -3 -3 -3 -3 -2 -1 1 1 1 2 2 3 3 1 -2 -3 -2 2 2 1 -1 -1 1 3 3 4 3 1 -2 -5 -3 1 6 8 7 5 4 3 3 4 4 2 4 4 4 4 5 6 6 6 6 6 6 5 4 4 5 7
-1 -1 -1 -1 -1 -1 -1 -1 -2 -2 -1 -1 -2 -2 -1 -1 -1 -1 -1 -1 -1 -3 -4 2 6 6 -3 -7 -8 -8 -7 -6 -4 -3 -3 -5 -7 -6 -5 -3 -3 -2 -2 -2 -2 -2 -3 -3 -2 -1 -1 -1 -0 1 2 0 1 2 2 2 0 -1 -1 2 1 -0 -1 2 3 3 3 3 2 -1 -3 -2 2 6 9 10 9 6 4 3 2 1 -1 0 2 3 3 3 4 5 5 6 6 6 5 5 4 5 6
-0 -0 -0 -0 -1 -1 -1 -2 -2 -2 -1 -1 -1 -2 -1 -1 -1 -1 -1 1 0 -2 -5 0 8 12 4 -4 -8 -9 -9 -9 -8 -6 -4 -4 -6 -7 -7 -6 -5 -3 -3 -2 -2 -2 -2 -2 -1 -1 -0 -1 -1 -1 -1 -0 1 2 3 2 2 1 1 2 1 -2 -3 0 2 2 2 2 1 -1 -3 -2 0 3 4 6 8 8 6 3 3 2 -0 -1 -0 1 1 1 2 3 3 4 5 6 6 5 5 5 5
-0 -0 -0 0 -0 -1 -1 -1 -2 -2 -1 -1 -1 -1 -1 -1 -2 -2 -1 1 1 -1 -5 -2 7 14 10 1 -4 -7 -8 -8 -8 -7 -6 -5 -5 -6 -7 -7 -6 -5 -4 -3 -2 -2 -2 -1 -1 -0 0 -0 -1 -2 -3 -1 1 3 3 2 2 3 4 4 2 -1 -5 -3 -2 -1 0 2 1 -1 -3 -2 -1 0 0 1 3 5 6 4 3 2 1 0 -1 -1 -2 -1 0 2 2 4 5 5 5 5 6 6 6
-1 -1 -1 -0 -0 -0 -0 -1 -2 -2 -1 -1 -1 -1 -1 -1 -2 -3 -1 0 0 -1 -3 -3 2 7 8 5 1 -3 -5 -6 -7 -8 -6 -5 -5 -6 -6 -6 -6 -6 -5 -4 -3 -2 -2 -1 -0 0 0 -0 -2 -3 -3 -2 0 1 1 1 2 2 1 2 2 1 -2 -4 -4 -3 -1 1 1 -1 -3 -3 -2 -0 0 -0 1 3 5 4 3 2 1 0 -0 -1 -2 -2 -1 0 2 3 4 4 4 5 6 6 6
-1 -1 -1 -1 -0 -0 -0 -1 -2 -2 -2 -1 -1 -1 -2 -2 -3 -3 -1 -0 -1 -2 -3 -3 -1 0 -0 0 1 1 -1 -3 -6 -9 -10 -6 -4 -3 -4 -5 -5 -5 -4 -5 -4 -3 -2 -1 -1 -0 0 -1 -1 -2 -2 -1 -1 -1 -1 1 1 1 -1 1 1 1 -1 -3 -4 -3 -1 1 1 -1 -4 -4 -2 -1 -0 -0 0 2 5 5 4 2 1 0 -0 -1 -2 -2 -2 -2 -0 2 3 3 4 5 5 6 6
-0 -0 -1 -0 -0 -0 -1 -1 -2 -2 -2 -2 -2 -1 -1 -1 -2 -2 0 1 -0 -2 -2 -2 -2 -3 -4 -5 -3 1 4 1 -3 -7 -9 -11 -9 -4 0 -1 -4 -5 -4 -5 -5 -4 -2 -2 -1 -1 -1 -1 -1 -0 0 -0 -1 -2 -1 -1 -1 -1 1 0 0 -0 -1 -3 -2 -1 0 1 -1 -2 -4 -3 -2 -1 -2 -2 -1 1 4 6 5 3 2 1 0 -0 -1 -2 -2 -2 -2 2 3 4 4 4 4 4 5
-1 -1 -0 -0 -1 -1 -1 -1 -1 -1 -2 -2 -1 -1 0 0 -1 -1 1 2 2 0 -2 -0 -1 -2 -5 -7 -5 -1 5 1 -3 -5 -3 -9 -14 -17 -13 -7 -5 -5 -5 -5 -5 -5 -3 -2 -1 -1 -1 -1 0 1 2 1 0 -0 -1 -2 -3 -1 1 -0 -1 -1 -1 -1 0 2 1 0 -1 -2 -3 -1 0 -0 -2 -4 -3 0 3 6 6 5 3 2 1 0 -0 -1 -1 -2 -2 1 4 6 5 5 4 3 5
-1 -1 -1 -1 -1 -1 -2 -2 -2 -2 -1 -1 -0 -0 0 1 0 -1 -1 2 2 0 -3 -2 -1 -1 -3 -5 -4 -1 2 -2 -6 -8 -8 -5 -8 -15 -25 -22 -15 -8 -3 -1 -1 -2 -3 -2 -2 -2 -2 -1 1 3 3 2 2 1 -0 -2 -2 -1 -0 -1 -1 -1 -1 0 2 3 -0 -1 -1 -1 0 2 3 3 1 -1 -1 -0 1 6 8 7 4 2 1 -0 -0 -1 -1 -2 -2 -1 2 5 6 7 6 5 6
-1 -1 -1 -1 -1 -1 -2 -2 -2 -2 -2 -1 -0 0 0 0 -0 -1 -2 0 1 -0 -2 -4 -4 -2 0 -2 -1 0 1 -4 -6 -6 -5 -1 0 -1 -7 -15 -19 -19 -15 -8 -2 2 0 -0 -1 -1 -3 0 2 2 2 3 2 2 1 0 -0 -1 -1 -1 -1 -1 -1 -0 1 2 -1 -3 -2 1 4 4 4 4 3 1 -1 -2 -2 3 6 8 8 4 2 -0 -1 -1 -1 -2 -1 -2 -0 2 7 7 6 5 5
-0 -0 -1 -1 -2 -2 -2 -2 -2 -2 -3 -3 -3 -2 -1 -1 -1 -1 -1 -0 -1 -1 -1 -1 -4 -5 -3 -2 -1 -0 -0 -5 -5 -1 5 6 3 -0 -2 -8 -12 -16 -22 -28 -21 -8 3 1 -0 -1 -1 -1 -0 0 2 2 2 2 2 1 1 0 0 1 1 1 1 0 0 0 -1 -3 -2 2 7 7 6 4 2 -0 -2 -3 -3 -1 3 6 10 7 4 1 -0 -1 -1 -1 -0 -1 -1 1 4 5 4 3 2
0 0 -1 -1 -2 -2 -3 -3 -2 -2 -2 -3 -4 -4 -2 -2 -2 -1 0 -1 -2 -2 -0 1 0 -2 -6 -4 -3 -3 -5 -5 -5 -1 8 16 7 -7 -14 -10 -4 -1 -4 -11 -22 -26 -10 -8 -10 -9 2 0 -2 -2 1 1 1 1 2 1 2 2 2 2 2 2 2 2 1 0 -0 -3 -1 2 8 8 6 3 0 -2 -2 -2 -2 -2 -0 2 6 7 6 4 1 -0 -0 0 1 0 0 0 1 3 4 5 2
0 0 -0 -1 -2 -3 -3 -3 -3 -2 -1 -1 -2 -3 -3 -2 -2 -1 -1 -2 -2 -2 -1 1 1 -0 -3 -5 -4 -5 -9 -7 -5 -1 11 22 13 -2 -10 -7 -4 -1 -0 4 -2 -12 -21 -17 -20 -19 -8 0 -0 -2 0 1 1 0 0 1 1 1 1 2 2 2 1 2 1 1 0 -2 -1 3 8 8 5 2 -1 -2 -1 0 0 -1 -2 -1 1 4 5 5 3 1 2 3 3 1 1 1 1 1 2 3 3
-1 -0 -1 -2 -2 -2 -3 -3 -3 -3 -2 -1 -1 -2 -3 -2 -1 -0 -1 -2 -1 -0 0 -0 0 1 0 -4 -5 -5 -8 -8 -5 2 16 20 14 7 7 -2 -8 -10 -8 -5 0 0 -11 -20 -22 -20 -17 -6 -4 -6 -2 1 1 -0 -1 0 0 -0 -1 0 1 2 3 4 3 2 2 -3 -1 5 9 8 5 2 -1 -1 1 3 2 -1 -2 -3 -2 0 2 2 1 2 4 5 3 2 1 1 2 1 1 1 3
-1 -1 -1 -2 -2 -2 -2 -3 -3 -2 -2 -1 -1 -2 -2 -1 -0 0 -1 -1 0 1 1 -1 -0 1 3 0 -3 -6 -8 -10 -7 2 18 14 8 5 10 9 8 5 -2 -4 -5 -5 -8 -9 -14 -20 -24 -8 -5 -7 -10 -3 -0 -0 -2 -1 -1 -1 -2 -1 -0 0 2 5 5 4 4 0 1 5 8 5 3 1 0 1 3 4 2 -1 -3 -3 -2 -1 -0 -1 -2 -2 2 5 5 3 2 1 2 2 1 1 2
-2 -2 -2 -2 -2 -2 -2 -3 -3 -3 -2 -1 -1 -2 -2 -0 -1 -1 -3 -2 -0 1 2 0 -1 -1 3 3 1 -3 -6 -10 -9 -1 16 10 2 -1 5 10 15 20 21 14 5 -5 -15 -6 0 -5 -29 -21 -6 3 -8 -8 -3 1 -0 -2 -2 -2 -2 -1 -1 -0 1 1 3 5 7 5 2 -1 -1 -0 -1 -1 0 1 2 1 -2 -3 -3 -2 -1 -0 -0 -1 -3 -4 -2 2 7 5 3 2 2 2 2 2 2
-2 -2 -2 -2 -2 -2 -2 -2 -3 -3 -2 -2 -1 -2 -2 -1 -1 -2 -3 -2 -1 -0 1 1 -0 -1 -1 2 2 -0 -2 -6 -8 -4 9 2 -2 -3 1 3 5 8 14 15 12 7 -3 -4 4 5 -16 -37 -24 -2 6 -4 -5 -2 -0 -0 -1 -2 -3 -2 -1 -0 0 1 2 4 6 5 2 -1 -4 -3 -2 -1 -1 0 -2 -4 -7 -4 -1 0 0 1 1 -0 -3 -4 -4 -2 5 6 5 4 4 3 3 3 3
-1 -2 -2 -2 -2 -2 -2 -2 -2 -2 -2 -2 -2 -2 -2 -1 -1 -1 -1 -1 -0 -0 -0 0 1 0 -1 0 1 1 -1 -3 -2 -1 2 -6 -8 -5 -1 -2 -2 -0 2 4 7 11 13 13 12 9 -1 -20 -32 -30 -7 1 1 -2 -3 -1 -0 -1 -3 -2 -1 -1 -1 0 0 1 2 5 5 3 -0 -0 -1 -1 -0 0 -2 -4 -4 1 3 3 1 2 2 1 -1 -3 -4 -3 0 4 6 6 5 4 3 2 2
-1 -2 -3 -2 -2 -2 -2 -2 -2 -2 -2 -2 -2 -2 -2 -2 -1 -1 -1 -0 0 1 1 1 1 1 1 1 2 2 0 -2 -1 1 2 -5 -8 -8 -2 -3 -4 -5 -4 -1 3 7 9 21 25 20 6 4 -10 -28 -43 -18 -4 2 -0 1 -0 -1 -3 -2 -1 -1 -1 -1 -0 0 1 3 5 5 4 3 1 -0 -0 0 0 1 3 6 7 5 3 3 2 1 -0 -2 -3 -3 -2 1 4 5 5 3 2 1 1
-1 -2 -3 -3 -3 -2 -2 -2 -2 -2 -2 -2 -2 -1 -1 -1 -1 -1 -1 -1 -1 0 2 1 1 1 2 2 2 2 2 0 -0 0 2 1 -3 -6 -4 -2 -3 -5 -6 -4 -2 1 2 20 23 17 7 6 2 -7 -22 -29 -25 -16 -8 1 3 3 -0 0 0 -0 -1 -1 -0 1 1 2 3 4 5 4 4 4 2 1 1 2 2 5 5 4 3 3 2 2 1 -1 -2 -3 -3 -0 2 3 3 1 0 -0 -1
Height
1548 1547 1546 1545 1544 1543 1542 1541 1540 1539 1538 1537 1537 1536 1535 1534 1533 1533 1532 1531 1531 1531 1530 1530 1529 1528 1528 1527 1527 1527 1526 1526 1525 1525 1525 1525 1525 1525 1524 1524 1524 1525 1525 1525 1524 1524 1524 1524 1524 1524 1524 1525 1525 1525 1525 1526 1526 1526 1526 1526 1526 1526 1526 1526 1526 1526 1527 1527 1527 1527 1527 1527 1528 1528 1529 1530 1530 1530 1531 1531 1532 1532 1533 1533 1534 1534 1535 1535 1535 1536 1536 1537 1537 1538 1538 1539 1540 1540 1541 1541 1542 1542 1543
1547 1546 1545 1544 1543 1542 1541 1540 1539 1538 1537 1536 1536 1535 1534 1533 1532 1531 1531 1531 1530 1529 1528 1528 1527 1527 1526 1526 1526 1525 1525 1524 1524 1524 1523 1523 1523 1523 1523 1523 1523 1523 1523 1523 1523 1523 1523 1523 1522 1523 1523 1523 1524 1524 1524 1524 1524 1524 1524 1525 1525 1525 1526 1526 1526 1526 1526 1526 1526 1526 1526 1526 1527 1528 1528 1528 1529 1529 1530 1530 1531 1531 1532 1533 1533 1533 1534 1534 1534 1535 1536 1536 1537 1537 1538 1538 1539 1539 1540 1540 1541 1541 1542
1546 1545 1544 1543 1542 1541 1540 1539 1538 1537 1536 1536 1535 1534 1533 1532 1531 1531 1530 1529 1529 1528 1527 1526 1526 1525 1525 1524 1524 1524 1523 1523 1522 1522 1522 1522 1522 1522 1522 1522 1521 1521 1522 1521 1521 1521 1521 1521 1521 1521 1521 1522 1522 1522 1522 1523 1523 1523 1523 1523 1523 1524 1525 1525 1525 1525 1525 1525 1525 1525 1525 1526 1526 1527 1527 1527 1528 1528 1529 1529 1530 1531 1531 1532 1532 1532 1532 1533 1533 1534 1535 1535 1536 1536 1537 1537 1538 1538 1539 1539 1540 1541 1541
1544 1543 1542 1542 1541 1540 1539 1538 1537 1536 1535 1534 1533 1532 1532 1531 1530 1529 1529 1528 1527 1526 1526 1525 1524 1524 1523 1523 1522 1522 1522 1521 1521 1521 1521 1520 1520 1520 1520 1520 1520 1520 1520 1520 1520 1520 1520 1520 1520 1520 1520 1520 1521 1521 1521 1521 1521 1521 1521 1522 1522 1523 1523 1524 1524 1524 1524 1523 1524 1524 1524 1525 1525 1526 1526 1526 1527 1527 1528 1528 1529 1529 1530 1531 1531 1531 1531 1532 1532 1533 1534 1534 1535 1535 1536 1536 1537 1537 1538 1538 1539 1540 1540
1543 1542 1541 1540 1539 1539 1538 1537 1536 1535 1534 1533 1532 1531 1531 1530 1529 1528 1527 1526 1526 1525 1524 1524 1523 1522 1522 1521 1521 1521 1520 1520 1519 1519 1519 1519 1519 1518 1519 1518 1518 1519 1518 1518 1518 1518 1518 1518 1518 1518 1518 1518 1519 1519 1519 1520 1520 1520 1520 1520 1521 1521 1522 1522 1523 1523 1522 1523 1523 1523 1523 1524 1524 1525 1525 1525 1526 1526 1527 1527 1527 1528 1529 1530 1530 1531 1531 1531 1531 1532 1533 1533 1534 1534 1535 1535 1536 1536 1537 1538 1538 1539 1539
1542 1541 1540 1539 1538 1537 1536 1536 1535 1534 1533 1532 1531 1530 1529 1528 1528 1527 1526 1525 1524 1524 1523 1522 1521 1521 1520 1520 1520 1519 1519 1518 1518 1517 1517 1517 1517 1517 1517 1517 1517 1517 1517 1516 1516 1516 1516 1516 1516 1516 1516 1516 1517 1517 1518 1518 1518 1518 1518 1519 1519 1520 1520 1521 1521 1521 1521 1521 1522 1522 1522 1523 1523 1523 1524 1524 1524 1525 1525 1526 1526 1527 1528 1528 1529 1530 1530 1530 1531 1531 1532 1532 1532 1533 1534 1534 1535 1535 1536 1536 1537 1538 1538
1541 1540 1539 1538 1537 1536 1535 1534 1533 1532 1532 1531 1530 1529 1528 1527 1526 1526 1525 1524 1523 1522 1521 1521 1520 1519 1519 1519 1518 1518 1517 1517 1516 1516 1516 1516 1516 1516 1516 1516 1516 1515 1515 1515 1515 1515 1515 1515 1515 1515 1515 1515 1515 1516 1516 1516 1516 1517 1517 1517 1518 1518 1519 1519 1520 1520 1521 1521 1521 1521 1521 1522 1522 1522 1523 1523 1523 1523 1524 1524 1525 1526 1526 1527 1528 1529 1529 1529 1530 1530 1531 1531 1531 1532 1532 1533 1534 1534 1535 1535 1536 1537 1537
1540 1539 1538 1537 1536 1535 1534 1533 1532 1531 1530 1529 1528 1528 1527 1526 1525 1524 1523 1522 1521 1521 1520 1519 1518 1518 1518 1517 1517 1516 1516 1516 1515 1515 1514 1514 1515 1515 1515 1515 1514 1514 1514 1513 1513 1513 1513 1513 1513 1513 1513 1513 1513 1514 1514 1515 1515 1515 1515 1516 1516 1516 1517 1518 1518 1519 1519 1519 1520 1520 1520 1521 1521 1521 1522 1523 1523 1523 1523 1523 1524 1525 1526 1526 1527 1527 1528 1528 1529 1529 1529 1530 1530 1531 1531 1532 1532 1533 1534 1534 1535 1536 1536
1539 1538 1537 1536 1535 1533 1532 1531 1531 1529 1528 1528 1527 1526 1525 1525 1524 1523 1522 1521 1520 1519 1518 1518 1517 1517 1516 1516 1516 1515 1515 1514 1514 1513 1513 1513 1514 1514 1514 1514 1513 1513 1512 1512 1512 1512 1512 1511 1511 1511 1511 1511 1512 1512 1512 1513 1513 1513 1514 1514 1514 1515 1516 1516 1517 1517 1518 1518 1518 1518 1519 1519 1520 1520 1521 1521 1521 1522 1522 1522 1523 1523 1524 1525 1526 1526 1527 1527 1528 1528 1528 1529 1529 1530 1531 1531 1531 1532 1532 1533 1534 1534 1535
1538 1537 1536 1535 1533 1532 1531 1530 1529 1528 1527 1526 1525 1524 1524 1523 1522 1521 1521 1519 1519 1518 1517 1516 1516 1516 1515 1515 1514 1514 1513 1513 1512 1512 1512 1512 1512 1512 1512 1512 1511 1511 1511 1511 1511 1511 1510 1510 1510 1509 1509 1510 1510 1510 1511 1511 1511 1512 1512 1512 1513 1513 1514 1515 1515 1516 1516 1517 1517 1517 1518 1518 1519 1519 1519 1519 1520 1520 1521 1521 1521 1522 1523 1524 1524 1525 1526 1526 1527 1527 1527 1528 1528 1529 1530 1530 1531 1531 1531 1532 1532 1533 1534
1537 1536 1535 1533 1532 1531 1530 1529 1528 1527 1526 1525 1524 1523 1522 1521 1521 1520 1519 1518 1517 1516 1516 1515 1515 1514 1514 1513 1512 1512 1512 1511 1511 1511 1510 1510 1510 1509 1510 1509 1509 1509 1508 1508 1509 1509 1508 1508 1508 1508 1508 1508 1508 1509 1509 1509 1510 1510 1511 1511 1511 1512 1512 1513 1513 1514 1515 1515 1516 1516 1516 1517 1517 1518 1518 1518 1519 1519 1520 1520 1521 1521 1521 1522 1523 1524 1525 1525 1526 1526 1526 1527 1527 1528 1528 1529 1530 1530 1531 1531 1531 1532 1533
1536 1535 1534 1532 1531 1530 1529 1528 1527 1526 1524 1523 1522 1521 1520 1520 1519 1518 1517 1516 1516 1515 1515 1514 1513 1513 1512 1511 1511 1511 1510 1510 1509 1509 1509 1508 1507 1506 1506 1506 1506 1505 1505 1505 1505 1506 1506 1506 1506 1506 1506 1506 1506 1507 1507 1507 1508 1509 1509 1509 1510 1510 1511 1511 1511 1512 1513 1513 1514 1514 1515 1515 1516 1516 1516 1517 1517 1518 1518 1519 1519 1520 1520 1521 1522 1522 1523 1524 1524 1525 1525 1526 1526 1526 1527 1528 1529 1529 1530 1530 1531 1531 1532
1536 1534 1533 1531 1530 1529 1528 1527 1526 1524 1523 1522 1521 1520 1519 1518 1517 1517 1516 1515 1515 1514 1513 1512 1512 1511 1511 1510 1509 1509 1509 1508 1508 1508 1507 1506 1505 1504 1503 1503 1503 1503 1503 1503 1503 1503 1504 1505 1505 1505 1505 1504 1504 1505 1505 1506 1506 1507 1507 1508 1508 1509 1509 1509 1509 1510 1511 1511 1512 1512 1512 1513 1514 1514 1515 1515 1516 1516 1517 1517 1518 1518 1519 1520 1520 1521 1521 1522 1523 1523 1524 1524 1525 1526 1526 1527 1527 1528 1529 1529 1530 1530 1531
1535 1533 1532 1531 1529 1528 1527 1526 1525 1523 1522 1521 1520 1519 1518 1517 1516 1515 1515 1514 1513 1513 1512 1511 1510 1510 1509 1508 1508 1507 1507 1507 1506 1506 1505 1504 1503 1502 1502 1502 1502 1502 1502 1502 1502 1502 1502 1502 1503 1503 1503 1503 1503 1503 1503 1504 1504 1505 1506 1506 1507 1507 1507 1507 1507 1508 1509 1509 1509 1510 1511 1511 1512 1512 1513 1513 1514 1515 1515 1516 1516 1516 1517 1518 1519 1519 1520 1521 1521 1522 1523 1523 1523 1524 1525 1525 1526 1527 1527 1528 1529 1529 1530
1533 1532 1531 1530 1528 1527 1526 1525 1524 1522 1521 1520 1519 1518 1517 1516 1515 1514 1513 1513 1512 1511 1510 1510 1509 1508 1507 1507 1506 1506 1505 1505 1505 1504 1503 1503 1502 1501 1501 1500 1500 1500 1500 1501 1501 1501 1501 1501 1501 1501 1501 1501 1501 1501 1501 1502 1502 1503 1504 1505 1505 1505 1505 1506 1506 1506 1506 1507 1507 1508 1508 1509 1510 1511 1511 1512 1512 1513 1513 1514 1514 1515 1516 1516 1517 1517 1518 1519 1520 1521 1521 1521 1522 1523 1523 1524 1525 1526 1526 1527 1527 1528 1529
1532 1531 1530 1529 1528 1526 1525 1524 1522 1521 1520 1519 1518 1517 1516 1515 1514 1513 1512 1511 1511 1510 1509 1508 1507 1506 1506 1505 1504 1504 1503 1503 1503 1502 1502 1501 1500 1500 1499 1499 1499 1498 1499 1499 1499 1499 1499 1499 1499 1499 1499 1499 1500 1500 1500 1500 1501 1501 1502 1503 1503 1503 1504 1504 1504 1504 1504 1505 1506 1506 1506 1507 1508 1509 1509 1510 1511 1511 1511 1512 1513 1513 1514 1515 1515 1516 1516 1516 1518 1519 1519 1520 1521 1521 1522 1522 1523 1524 1525 1526 1526 1527 1527
1532 1531 1529 1528 1527 1526 1524 1523 1521 1520 1519 1518 1517 1516 1515 1514 1513 1512 1511 1510 1509 1508 1507 1506 1506 1505 1504 1503 1503 1502 1501 1501 1501 1501 1500 1499 1499 1498 1498 1497 1497 1497 1497 1497 1497 1497 1497 1498 1498 1498 1497 1497 1498 1498 1498 1498 1499 1499 1500 1501 1501 1501 1502 1502 1502 1502 1502 1503 1504 1504 1504 1505 1506 1506 1507 1508 1509 1509 1510 1510 1511 1511 1512 1512 1513 1513 1514 1515 1515 1516 1517 1518 1519 1519 1520 1521 1522 1523 1523 1524 1525 1526 1526
1531 1530 1529 1527 1526 1525 1523 1522 1521 1519 1518 1517 1516 1515 1514 1513 1512 1511 1510 1509 1508 1507 1506 1505 1504 1504 1503 1502 1501 1500 1500 1499 1499 1499 1498 1498 1497 1496 1496 1496 1495 1495 1495 1496 1496 1496 1496 1496 1497 1497 1496 1496 1496 1496 1496 1497 1497 1497 1498 1499 1499 1500 1500 1500 1500 1500 1501 1501 1502 1502 1502 1503 1503 1504 1504 1505 1506 1506 1507 1508 1509 1509 1510 1510 1511 1511 1512 1512 1513 1514 1515 1516 1517 1518 1518 1519 1520 1521 1522 1523 1523 1524 1525
1530 1529 1528 1526 1525 1524 1522 1521 1519 1518 1517 1516 1515 1514 1513 1512 1511 1510 1509 1507 1506 1505 1504 1503 1503 1502 1501 1500 1499 1499 1498 1497 1497 1497 1497 1496 1496 1495 1494 1494 1493 1493 1494 1494 1494 1494 1494 1494 1495 1495 1495 1494 1494 1495 1495 1496 1496 1496 1496 1497 1497 1497 1497 1497 1498 1498 1499 1499 1500 1500 1501 1501 1501 1502 1502 1502 1503 1504 1505 1506 1507 1507 1508 1509 1509 1510 1510 1511 1511 1512 1513 1514 1515 1516 1517 1517 1518 1519 1520 1521 1522 1523 1523
1529 1528 1526 1525 1524 1522 1521 1520 1518 1517 1516 1514 1513 1512 1512 1511 1510 1508 1507 1506 1505 1504 1503 1502 1501 1501 1500 1499 1498 1497 1496 1496 1495 1495 1495 1494 1494 1493 1493 1492 1491 1491 1492 1492 1492 1492 1492 1492 1492 1492 1491 1491 1492 1492 1492 1493 1494 1494 1494 1495 1495 1495 1495 1495 1496 1496 1497 1497 1498 1498 1499 1499 1500 1501 1500 1500 1501 1502 1503 1504 1505 1505 1506 1507 1507 1508 1509 1509 1510 1511 1511 1512 1513 1514 1515 1516 1516 1517 1518 1519 1520 1521 1522
1528 1526 1525 1524 1522 1521 1520 1518 1517 1515 1514 1513 1512 1511 1510 1509 1508 1507 1506 1505 1504 1503 1501 1501 1500 1499 1498 1497 1496 1496 1495 1494 1494 1493 1493 1492 1492 1492 1491 1491 1490 1490 1490 1490 1490 1490 1490 1490 1490 1490 1490 1490 1490 1490 1491 1491 1491 1491 1492 1492 1492 1492 1493 1493 1493 1494 1495 1496 1496 1497 1497 1498 1498 1499 1498 1498 1499 1500 1501 1502 1503 1503 1504 1505 1506 1506 1507 1508 1508 1509 1510 1510 1511 1512 1513 1514 1515 1516 1517 1518 1519 1520 1521
1527 1526 1524 1523 1521 1519 1518 1516 1515 1514 1512 1511 1510 1509 1508 1507 1506 1505 1504 1503 1502 1501 1500 1499 1498 1497 1496 1496 1495 1494 1493 1493 1492 1491 1491 1491 1491 1490 1490 1489 1489 1488 1488 1488 1488 1488 1488 1488 1488 1489 1489 1489 1489 1489 1489 1489 1489 1489 1490 1490 1490 1490 1490 1490 1491 1492 1494 1494 1495 1496 1496 1496 1497 1497 1497 1497 1497 1498 1498 1500 1500 1501 1502 1503 1503 1504 1505 1506 1506 1507 1507 1509 1510 1511 1511 1512 1513 1514 1515 1516 1517 1518 1519
1526 1525 1523 1522 1521 1519 1517 1516 1514 1513 1511 1511 1509 1508 1507 1506 1505 1504 1502 1501 1500 1499 1498 1497 1496 1496 1495 1494 1494 1493 1492 1491 1491 1490 1489 1489 1489 1489 1488 1488 1487 1486 1486 1486 1486 1486 1486 1487 1487 1487 1487 1487 1487 1487 1487 1487 1487 1487 1488 1488 1488 1488 1488 1488 1489 1490 1491 1493 1493 1494 1495 1495 1495 1496 1496 1496 1496 1496 1497 1497 1498 1499 1500 1501 1501 1502 1503 1504 1505 1505 1506 1507 1509 1509 1510 1511 1512 1513 1514 1515 1516 1516 1517
1525 1524 1522 1521 1520 1518 1517 1515 1514 1512 1511 1510 1509 1507 1506 1505 1504 1503 1501 1501 1499 1498 1497 1496 1495 1495 1494 1493 1493 1492 1491 1491 1490 1489 1488 1487 1487 1487 1487 1486 1486 1485 1484 1484 1484 1484 1485 1485 1485 1485 1485 1485 1485 1485 1485 1485 1485 1485 1486 1486 1486 1486 1486 1486 1487 1488 1489 1491 1491 1492 1493 1493 1494 1494 1494 1495 1495 1496 1496 1496 1497 1498 1499 1499 1500 1500 1501 1502 1503 1503 1504 1506 1507 1508 1508 1509 1510 1511 1512 1513 1514 1515 1516
1525 1523 1522 1521 1519 1518 1516 1515 1513 1512 1510 1509 1508 1507 1506 1505 1503 1502 1501 1500 1498 1497 1496 1495 1494 1494 1493 1492 1491 1491 1490 1489 1489 1488 1487 1486 1486 1486 1485 1485 1484 1483 1482 1482 1482 1482 1482 1483 1483 1483 1483 1483 1483 1483 1483 1483 1483 1483 1483 1484 1485 1485 1485 1485 1486 1486 1487 1488 1489 1490 1491 1491 1492 1492 1493 1493 1494 1494 1495 1495 1496 1496 1497 1497 1498 1499 1500 1501 1501 1502 1503 1504 1505 1506 1507 1508 1509 1510 1511 1512 1513 1514 1515
1524 1523 1521 1520 1519 1517 1516 1515 1513 1511 1510 1509 1507 1506 1505 1504 1503 1501 1500 1499 1498 1496 1496 1495 1494 1493 1492 1491 1490 1490 1489 1488 1487 1486 1486 1485 1485 1484 1483 1483 1482 1482 1481 1481 1480 1481 1481 1481 1481 1481 1481 1481 1481 1481 1481 1481 1481 1481 1481 1481 1482 1483 1483 1484 1484 1485 1485 1486 1486 1487 1489 1489 1490 1491 1491 1491 1492 1493 1493 1494 1495 1496 1496 1496 1497 1497 1498 1499 1500 1501 1502 1503 1504 1505 1505 1506 1507 1508 1509 1511 1511 1512 1513
1524 1522 1521 1520 1518 1517 1516 1514 1513 1511 1510 1508 1507 1506 1504 1503 1502 1501 1500 1498 1497 1496 1495 1494 1493 1491 1491 1490 1489 1488 1487 1487 1486 1485 1485 1484 1483 1482 1482 1481 1481 1480 1480 1480 1479 1479 1479 1478 1478 1478 1479 1478 1478 1478 1478 1478 1478 1478 1478 1479 1480 1481 1481 1482 1483 1483 1484 1484 1485 1485 1486 1487 1488 1488 1489 1490 1491 1491 1491 1492 1493 1494 1495 1495 1495 1496 1497 1498 1498 1499 1500 1501 1502 1503 1504 1505 1506 1507 1508 1509 1510 1511 1512
1523 1522 1521 1519 1518 1516 1515 1513 1512 1511 1509 1508 1506 1505 1504 1502 1501 1500 1499 1497 1496 1495 1494 1492 1491 1490 1489 1488 1487 1486 1486 1485 1485 1484 1483 1482 1482 1481 1480 1479 1479 1479 1478 1478 1479 1478 1477 1476 1476 1476 1476 1476 1476 1476 1476 1477 1477 1476 1476 1476 1477 1478 1479 1480 1481 1482 1482 1483 1483 1483 1484 1485 1486 1486 1487 1488 1489 1489 1490 1491 1491 1492 1493 1493 1494 1495 1496 1496 1496 1497 1498 1499 1500 1501 1502 1504 1505 1506 1506 1507 1508 1509 1510
1521 1521 1520 1518 1517 1516 1514 1513 1511 1510 1508 1507 1506 1505 1503 1502 1500 1499 1498 1497 1496 1494 1493 1492 1491 1490 1488 1487 1486 1486 1485 1484 1483 1482 1482 1481 1480 1480 1479 1478 1477 1477 1476 1477 1477 1477 1476 1475 1474 1474 1474 1474 1474 1475 1475 1475 1475 1475 1474 1474 1475 1476 1477 1478 1479 1480 1480 1481 1482 1482 1483 1483 1484 1485 1485 1486 1486 1487 1488 1489 1490 1490 1491 1491 1492 1493 1494 1494 1494 1495 1496 1497 1498 1499 1501 1502 1503 1504 1505 1506 1506 1508 1509
1520 1519 1519 1517 1516 1515 1514 1512 1511 1510 1508 1507 1506 1504 1503 1501 1500 1498 1497 1496 1495 1493 1492 1491 1490 1489 1487 1486 1485 1484 1483 1482 1481 1481 1480 1480 1479 1478 1477 1476 1476 1475 1475 1475 1475 1474 1474 1473 1473 1472 1471 1471 1472 1473 1473 1473 1474 1474 1473 1473 1473 1473 1475 1476 1476 1477 1478 1479 1480 1481 1481 1482 1483 1483 1484 1484 1485 1486 1486 1487 1488 1488 1488 1489 1490 1491 1491 1492 1493 1493 1494 1495 1496 1498 1499 1500 1501 1502 1503 1504 1505 1506 1507
1520 1518 1517 1516 1515 1514 1513 1512 1511 1509 1507 1506 1505 1504 1502 1501 1499 1498 1496 1495 1494 1492 1491 1490 1489 1487 1486 1485 1484 1483 1482 1481 1480 1479 1479 1478 1478 1477 1476 1475 1474 1474 1473 1473 1472 1472 1472 1472 1471 1471 1470 1470 1470 1471 1471 1471 1472 1472 1473 1472 1471 1471 1472 1473 1473 1474 1475 1476 1478 1479 1479 1480 1481 1482 1482 1482 1483 1483 1484 1485 1486 1487 1487 1488 1489 1489 1489 1490 1491 1491 1492 1493 1495 1496 1497 1499 1500 1501 1501 1502 1503 1504 1505
1519 1518 1516 1515 1514 1513 1512 1511 1510 1508 1506 1506 1504 1503 1501 1500 1499 1497 1496 1495 1493 1492 1491 1490 1488 1487 1486 1484 1483 1482 1481 1480 1479 1478 1477 1477 1476 1476 1475 1474 1473 1472 1472 1471 1471 1471 1471 1470 1470 1470 1469 1469 1468 1468 1469 1470 1470 1471 1472 1471 1470 1468 1469 1469 1470 1471 1472 1473 1475 1476 1477 1478 1479 1480 1480 1480 1481 1481 1482 1484 1485 1485 1486 1486 1487 1488 1488 1489 1490 1491 1492 1493 1494 1495 1496 1497 1498 1499 1500 1500 1501 1502 1503
1519 1517 1516 1515 1513 1512 1511 1511 1509 1507 1506 1505 1503 1502 1501 1500 1498 1497 1496 1494 1493 1491 1490 1489 1488 1486 1485 1484 1482 1481 1481 1479 1478 1477 1476 1475 1475 1474 1473 1473 1472 1471 1471 1470 1470 1469 1469 1469 1469 1468 1468 1468 1467 1466 1467 1468 1468 1469 1470 1470 1469 1467 1466 1466 1467 1468 1469 1470 1472 1474 1476 1476 1477 1478 1479 1478 1479 1480 1481 1482 1483 1483 1484 1485 1486 1487 1487 1487 1489 1490 1491 1492 1493 1494 1495 1495 1496 1498 1499 1499 1499 1501 1501
1518 1517 1516 1514 1513 1512 1511 1510 1508 1506 1505 1504 1502 1501 1500 1499 1497 1496 1495 1494 1492 1491 1489 1488 1487 1486 1485 1483 1482 1481 1480 1478 1477 1476 1475 1474 1473 1473 1472 1471 1471 1470 1470 1469 1468 1468 1467 1467 1467 1467 1467 1466 1466 1465 1465 1466 1466 1467 1468 1469 1468 1466 1465 1465 1466 1467 1468 1468 1470 1471 1473 1474 1475 1476 1477 1477 1478 1479 1479 1480 1481 1481 1482 1483 1484 1485 1486 1486 1488 1489 1490 1491 1491 1492 1493 1494 1495 1496 1497 1498 1498 1498 1500
1518 1516 1515 1514 1512 1511 1511 1510 1507 1505 1504 1502 1501 1500 1499 1498 1496 1495 1494 1492 1491 1490 1488 1487 1486 1485 1484 1483 1481 1480 1479 1477 1476 1475 1474 1473 1472 1471 1471 1470 1469 1469 1468 1468 1467 1466 1466 1466 1466 1465 1465 1465 1465 1464 1464 1464 1464 1465 1466 1467 1466 1466 1464 1464 1465 1466 1467 1467 1468 1469 1471 1472 1473 1474 1475 1476 1477 1477 1478 1478 1479 1479 1480 1481 1482 1483 1484 1485 1486 1487 1488 1489 1490 1491 1492 1492 1493 1494 1495 1496 1497 1497 1498
1517 1516 1515 1513 1512 1511 1510 1509 1506 1505 1503 1501 1501 1499 1498 1497 1496 1494 1493 1491 1490 1488 1487 1486 1485 1483 1482 1481 1480 1479 1477 1476 1475 1474 1473 1472 1471 1470 1470 1469 1468 1467 1467 1466 1466 1465 1465 1464 1464 1464 1464 1464 1464 1464 1463 1463 1462 1462 1463 1464 1465 1464 1463 1463 1464 1465 1465 1466 1466 1467 1469 1470 1471 1472 1474 1475 1475 1476 1476 1477 1477 1478 1479 1480 1481 1481 1483 1484 1485 1486 1486 1487 1488 1489 1490 1491 1491 1492 1494 1495 1496 1496 1497
1517 1515 1514 1513 1512 1511 1509 1507 1506 1504 1502 1501 1500 1499 1497 1496 1495 1493 1492 1491 1489 1487 1486 1485 1483 1482 1481 1480 1478 1477 1476 1475 1473 1472 1471 1470 1470 1469 1468 1467 1467 1466 1466 1465 1464 1464 1463 1463 1463 1463 1462 1462 1462 1463 1463 1462 1461 1461 1461 1462 1462 1462 1462 1462 1462 1463 1464 1464 1465 1465 1466 1468 1469 1471 1472 1473 1474 1474 1475 1475 1476 1476 1477 1478 1479 1480 1481 1483 1484 1484 1485 1486 1487 1487 1488 1488 1490 1491 1492 1493 1494 1495 1495
1516 1515 1513 1512 1511 1510 1509 1507 1505 1503 1502 1501 1500 1498 1497 1496 1494 1493 1491 1490 1488 1487 1486 1484 1483 1481 1480 1479 1477 1476 1475 1474 1472 1471 1470 1469 1468 1467 1466 1466 1465 1465 1464 1463 1463 1462 1462 1461 1461 1461 1461 1461 1461 1461 1461 1461 1460 1459 1459 1460 1461 1461 1460 1460 1460 1461 1461 1462 1462 1463 1464 1465 1466 1468 1470 1471 1472 1472 1473 1474 1474 1475 1476 1476 1477 1479 1480 1481 1482 1483 1483 1484 1485 1486 1487 1487 1488 1490 1491 1491 1492 1493 1493
1516 1514 1513 1512 1511 1510 1508 1506 1504 1503 1501 1501 1499 1498 1496 1495 1494 1493 1491 1490 1488 1487 1486 1484 1482 1481 1480 1478 1477 1476 1474 1473 1472 1470 1469 1468 1466 1465 1465 1464 1464 1463 1462 1462 1462 1461 1461 1460 1460 1460 1459 1459 1460 1460 1460 1460 1460 1458 1457 1457 1458 1459 1459 1458 1458 1459 1459 1460 1461 1461 1463 1464 1465 1466 1467 1468 1470 1471 1471 1472 1472 1473 1474 1475 1476 1477 1478 1479 1480 1481 1481 1482 1483 1484 1485 1486 1487 1489 1489 1490 1491 1491 1491
1515 1514 1512 1511 1510 1509 1507 1506 1504 1502 1501 1500 1499 1497 1496 1495 1494 1492 1491 1490 1488 1487 1486 1485 1483 1481 1479 1477 1476 1475 1473 1472 1471 1469 1468 1467 1466 1464 1463 1463 1462 1462 1461 1461 1460 1460 1459 1459 1459 1458 1458 1458 1458 1458 1458 1459 1459 1458 1456 1456 1456 1456 1457 1457 1457 1457 1457 1458 1459 1460 1461 1462 1462 1463 1464 1466 1467 1469 1470 1470 1471 1471 1472 1473 1474 1475 1476 1477 1478 1479 1480 1481 1481 1482 1483 1485 1486 1486 1487 1488 1489 1489 1490
1515 1513 1512 1511 1510 1508 1506 1505 1503 1502 1501 1499 1498 1497 1496 1495 1493 1492 1490 1489 1488 1487 1486 1486 1484 1481 1479 1477 1476 1474 1472 1471 1470 1468 1467 1466 1465 1463 1462 1462 1461 1460 1460 1460 1459 1458 1458 1458 1457 1457 1457 1456 1456 1456 1456 1456 1457 1457 1457 1455 1454 1454 1454 1455 1456 1456 1456 1456 1457 1458 1459 1460 1461 1461 1462 1463 1465 1466 1468 1468 1469 1470 1470 1471 1472 1473 1474 1475 1476 1477 1478 1479 1479 1480 1481 1483 1484 1484 1485 1486 1487 1487 1487
1514 1513 1511 1510 1509 1507 1506 1504 1503 1501 1500 1499 1497 1496 1495 1494 1493 1491 1490 1489 1488 1487 1486 1486 1484 1482 1480 1477 1476 1474 1472 1471 1469 1467 1466 1464 1463 1462 1461 1461 1460 1459 1458 1458 1457 1457 1457 1456 1456 1456 1455 1455 1455 1454 1454 1454 1454 1455 1455 1455 1453 1452 1452 1453 1454 1454 1455 1455 1456 1456 1457 1458 1459 1460 1461 1461 1462 1464 1465 1466 1467 1468 1469 1470 1471 1472 1473 1473 1474 1475 1476 1476 1477 1478 1479 1481 1481 1482 1483 1484 1485 1485 1486
1514 1512 1511 1510 1508 1507 1505 1504 1502 1501 1500 1498 1497 1496 1495 1494 1492 1491 1490 1489 1488 1487 1486 1485 1484 1483 1480 1478 1476 1474 1472 1470 1468 1466 1465 1463 1461 1461 1460 1459 1458 1457 1457 1456 1456 1456 1456 1455 1455 1455 1454 1453 1453 1452 1452 1452 1452 1452 1452 1452 1452 1451 1451 1451 1451 1452 1453 1454 1455 1455 1456 1456 1458 1459 1459 1459 1460 1461 1462 1464 1465 1466 1468 1469 1469 1470 1471 1472 1472 1472 1473 1474 1475 1476 1477 1478 1480 1481 1481 1482 1482 1483 1484
1513 1512 1511 1509 1508 1506 1505 1503 1502 1500 1499 1498 1496 1495 1494 1493 1492 1491 1490 1489 1488 1486 1485 1484 1484 1483 1481 1478 1476 1474 1472 1470 1467 1466 1464 1462 1461 1459 1458 1458 1457 1456 1456 1455 1455 1454 1454 1454 1454 1453 1453 1452 1451 1450 1450 1450 1450 1449 1449 1449 1450 1450 1450 1449 1449 1450 1451 1452 1453 1453 1454 1455 1456 1457 1457 1458 1458 1459 1460 1461 1462 1464 1466 1467 1468 1469 1470 1470 1471 1471 1471 1472 1474 1475 1476 1477 1478 1479 1479 1480 1481 1481 1482
1513 1511 1510 1509 1507 1506 1504 1502 1501 1500 1498 1497 1496 1495 1493 1492 1491 1490 1489 1489 1488 1486 1485 1483 1483 1483 1481 1479 1477 1475 1473 1471 1468 1466 1464 1462 1460 1458 1457 1456 1456 1455 1454 1454 1453 1453 1453 1453 1452 1452 1451 1451 1449 1448 1448 1448 1447 1447 1447 1447 1447 1447 1448 1448 1448 1448 1449 1450 1451 1451 1452 1453 1454 1455 1456 1456 1457 1457 1458 1459 1460 1461 1463 1465 1466 1467 1468 1469 1469 1470 1470 1471 1472 1473 1474 1475 1476 1477 1478 1479 1479 1480 1480
1512 1511 1509 1508 1506 1505 1503 1502 1500 1499 1498 1496 1495 1494 1493 1491 1490 1489 1488 1488 1487 1486 1484 1482 1482 1481 1481 1479 1477 1475 1473 1471 1469 1466 1464 1462 1460 1458 1456 1455 1455 1454 1453 1452 1452 1451 1451 1451 1451 1450 1450 1449 1448 1447 1447 1446 1445 1445 1445 1445 1445 1445 1446 1446 1446 1446 1447 1448 1449 1450 1451 1452 1453 1453 1454 1454 1455 1456 1456 1457 1458 1460 1461 1462 1464 1465 1466 1467 1468 1468 1469 1470 1470 1471 1472 1473 1474 1475 1476 1477 1478 1478 1479
1512 1510 1509 1507 1506 1504 1503 1501 1500 1498 1497 1496 1495 1493 1492 1491 1490 1489 1488 1487 1486 1484 1483 1482 1481 1480 1479 1478 1477 1475 1473 1471 1469 1467 1464 1462 1460 1458 1456 1454 1453 1453 1452 1451 1450 1450 1450 1450 1449 1449 1448 1447 1447 1446 1446 1445 1444 1444 1444 1443 1443 1443 1444 1444 1444 1444 1445 1446 1447 1448 1449 1451 1451 1452 1452 1453 1453 1454 1455 1456 1457 1458 1459 1461 1462 1463 1464 1465 1466 1467 1468 1468 1469 1470 1471 1471 1472 1473 1474 1475 1476 1477 1478
1511 1510 1508 1507 1505 1504 1502 1501 1499 1498 1496 1495 1494 1493 1492 1491 1489 1488 1488 1487 1485 1484 1482 1481 1480 1479 1477 1476 1476 1475 1473 1471 1469 1467 1465 1461 1459 1457 1456 1454 1452 1451 1450 1450 1449 1449 1448 1448 1448 1447 1447 1446 1446 1445 1445 1444 1444 1443 1443 1442 1442 1442 1442 1442 1442 1443 1443 1444 1446 1446 1447 1449 1450 1451 1451 1451 1452 1452 1453 1454 1455 1456 1457 1459 1461 1462 1463 1464 1465 1466 1466 1467 1468 1469 1469 1470 1471 1471 1472 1473 1474 1475 1476
1511 1509 1507 1506 1505 1503 1501 1500 1498 1497 1496 1495 1493 1492 1491 1490 1489 1488 1487 1486 1485 1483 1481 1481 1480 1478 1477 1476 1475 1474 1473 1471 1469 1467 1465 1463 1459 1456 1453 1452 1451 1449 1448 1448 1448 1447 1447 1447 1446 1446 1446 1445 1444 1444 1444 1443 1443 1442 1442 1442 1441 1441 1441 1441 1441 1441 1442 1443 1444 1445 1445 1446 1448 1449 1449 1450 1451 1451 1452 1452 1453 1454 1455 1457 1459 1460 1461 1462 1463 1464 1465 1466 1466 1467 1468 1469 1469 1470 1471 1472 1473 1474 1475
1510 1508 1507 1505 1504 1502 1501 1499 1498 1496 1495 1494 1493 1492 1491 1490 1489 1487 1486 1486 1484 1483 1481 1479 1479 1478 1477 1475 1474 1473 1472 1471 1469 1467 1465 1464 1461 1458 1453 1450 1448 1447 1447 1447 1447 1446 1446 1446 1445 1444 1444 1444 1443 1443 1443 1442 1442 1441 1441 1441 1441 1441 1441 1440 1441 1441 1442 1442 1443 1443 1443 1444 1446 1446 1447 1447 1448 1449 1450 1450 1451 1451 1453 1455 1456 1458 1459 1460 1461 1462 1463 1464 1465 1466 1466 1467 1468 1468 1469 1470 1472 1473 1474
1509 1508 1506 1505 1503 1501 1500 1498 1497 1496 1494 1493 1492 1491 1490 1489 1488 1486 1485 1485 1483 1482 1480 1479 1477 1477 1476 1475 1474 1473 1472 1471 1469 1468 1466 1464 1463 1462 1459 1454 1450 1447 1445 1444 1445 1445 1445 1444 1443 1443 1442 1442 1442 1442 1441 1441 1441 1440 1440 1440 1440 1440 1440 1440 1440 1440 1441 1441 1441 1441 1441 1442 1443 1444 1445 1445 1446 1447 1448 1448 1449 1449 1450 1452 1454 1456 1457 1458 1459 1460 1461 1462 1463 1464 1464 1465 1466 1467 1468 1469 1470 1471 1472
1509 1507 1506 1504 1502 1501 1499 1498 1496 1495 1494 1492 1491 1489 1488 1487 1486 1486 1485 1484 1482 1481 1480 1479 1477 1476 1475 1475 1474 1473 1472 1471 1470 1469 1467 1466 1464 1462 1461 1458 1454 1450 1446 1442 1441 1441 1443 1442 1441 1441 1441 1441 1441 1440 1440 1439 1439 1439 1439 1439 1439 1439 1439 1439 1439 1439 1439 1439 1439 1439 1439 1440 1441 1441 1442 1442 1444 1445 1446 1447 1447 1448 1448 1450 1451 1453 1455 1456 1457 1458 1460 1461 1461 1462 1462 1463 1464 1465 1466 1467 1468 1469 1471
1508 1507 1505 1503 1502 1500 1498 1497 1496 1494 1493 1491 1490 1488 1487 1486 1486 1485 1484 1482 1481 1480 1479 1479 1477 1476 1474 1473 1473 1472 1471 1471 1470 1469 1468 1467 1465 1461 1460 1459 1458 1455 1452 1448 1443 1439 1440 1440 1438 1437 1439 1439 1438 1438 1438 1438 1437 1437 1437 1437 1437 1437 1438 1438 1437 1437 1437 1437 1438 1438 1437 1438 1438 1439 1439 1440 1441 1443 1444 1446 1446 1446 1447 1448 1449 1451 1452 1454 1456 1457 1458 1459 1460 1460 1461 1461 1462 1463 1464 1465 1466 1467 1468
1508 1506 1505 1503 1501 1500 1498 1496 1495 1494 1492 1491 1490 1488 1487 1486 1485 1484 1483 1481 1480 1479 1478 1478 1477 1476 1474 1472 1471 1471 1470 1470 1470 1469 1468 1468 1466 1463 1461 1461 1459 1457 1455 1453 1449 1444 1440 1439 1437 1436 1436 1436 1437 1436 1436 1436 1436 1436 1436 1435 1435 1436 1436 1436 1436 1436 1436 1436 1436 1436 1436 1436 1436 1437 1438 1438 1440 1441 1443 1444 1445 1445 1446 1446 1447 1448 1450 1451 1453 1455 1456 1457 1458 1458 1459 1459 1461 1461 1462 1463 1465 1465 1466
1507 1506 1504 1502 1501 1499 1498 1496 1495 1493 1492 1491 1489 1488 1486 1485 1485 1484 1482 1481 1480 1479 1478 1477 1476 1475 1474 1472 1471 1470 1468 1469 1469 1469 1469 1468 1466 1466 1464 1462 1460 1457 1455 1454 1452 1450 1446 1443 1439 1436 1434 1435 1435 1435 1435 1435 1435 1434 1434 1434 1434 1434 1434 1434 1434 1434 1434 1434 1435 1435 1435 1435 1435 1436 1436 1437 1438 1440 1441 1442 1443 1444 1444 1445 1445 1446 1447 1449 1451 1452 1454 1455 1456 1456 1456 1458 1459 1460 1461 1462 1463 1464 1465
1506 1505 1503 1501 1500 1499 1497 1496 1494 1493 1491 1490 1489 1487 1486 1485 1484 1483 1481 1480 1479 1478 1477 1476 1475 1474 1474 1473 1471 1469 1468 1468 1468 1469 1469 1467 1466 1466 1466 1464 1462 1460 1457 1455 1453 1452 1450 1447 1442 1437 1433 1434 1435 1434 1433 1433 1433 1433 1433 1433 1433 1433 1433 1433 1433 1433 1433 1433 1433 1434 1434 1435 1435 1434 1434 1435 1436 1437 1439 1440 1441 1442 1442 1443 1444 1445 1446 1447 1448 1450 1451 1453 1453 1454 1455 1456 1457 1459 1460 1461 1461 1462 1463
1505 1504 1502 1501 1499 1498 1496 1495 1493 1492 1491 1489 1488 1487 1486 1485 1483 1482 1480 1479 1478 1477 1476 1475 1474 1473 1473 1472 1471 1469 1467 1466 1467 1468 1468 1467 1466 1465 1465 1465 1464 1463 1461 1459 1456 1453 1450 1449 1447 1442 1435 1433 1433 1434 1433 1432 1432 1432 1432 1432 1431 1431 1431 1431 1431 1431 1431 1432 1432 1432 1433 1433 1433 1433 1433 1433 1434 1436 1437 1438 1439 1439 1441 1441 1443 1444 1445 1446 1446 1448 1449 1451 1451 1452 1453 1455 1456 1457 1458 1459 1460 1461 1462
1504 1503 1501 1500 1498 1497 1496 1494 1493 1491 1490 1489 1487 1486 1485 1484 1482 1481 1479 1478 1477 1476 1475 1474 1473 1472 1471 1471 1471 1469 1467 1466 1466 1466 1466 1465 1464 1464 1464 1463 1463 1462 1462 1460 1458 1456 1452 1450 1448 1446 1440 1433 1431 1431 1433 1432 1431 1431 1431 1431 1431 1431 1431 1431 1431 1431 1431 1431 1431 1431 1431 1432 1432 1432 1432 1433 1433 1434 1435 1436 1437 1438 1439 1440 1441 1442 1443 1444 1445 1446 1447 1448 1449 1450 1451 1453 1454 1456 1457 1458 1459 1460 1461
1504 1502 1501 1499 1498 1496 1495 1493 1492 1491 1489 1488 1486 1485 1484 1483 1481 1480 1478 1477 1476 1475 1474 1473 1472 1471 1471 1470 1469 1468 1467 1466 1466 1466 1465 1463 1462 1462 1462 1461 1461 1461 1460 1459 1458 1456 1455 1452 1449 1447 1444 1439 1432 1428 1429 1431 1431 1430 1429 1429 1430 1430 1430 1430 1430 1430 1430 1430 1430 1430 1430 1431 1431 1431 1432 1432 1432 1433 1434 1435 1436 1437 1438 1439 1439 1441 1441 1442 1443 1444 1445 1446 1447 1449 1450 1451 1452 1454 1455 1456 1457 1458 1459
1503 1501 1499 1498 1496 1495 1494 1492 1491 1490 1488 1487 1486 1485 1483 1482 1480 1479 1477 1476 1475 1474 1473 1472 1471 1471 1470 1469 1468 1468 1467 1466 1465 1465 1464 1463 1461 1461 1461 1461 1460 1459 1459 1458 1456 1456 1454 1454 1452 1450 1447 1445 1440 1434 1429 1428 1429 1429 1429 1429 1428 1428 1429 1429 1429 1429 1429 1429 1429 1429 1429 1429 1430 1430 1431 1431 1431 1431 1432 1433 1435 1436 1436 1436 1437 1438 1439 1440 1441 1442 1443 1444 1446 1447 1448 1449 1451 1452 1453 1454 1455 1456 1457
1502 1500 1498 1497 1496 1494 1493 1491 1490 1489 1487 1486 1485 1484 1482 1481 1479 1478 1476 1475 1474 1473 1472 1471 1471 1470 1469 1468 1468 1467 1466 1466 1465 1464 1464 1463 1461 1460 1460 1460 1459 1458 1457 1456 1455 1454 1453 1453 1452 1451 1449 1447 1445 1441 1436 1430 1428 1427 1427 1427 1427 1428 1427 1428 1428 1428 1428 1428 1428 1428 1428 1428 1428 1429 1429 1429 1430 1430 1430 1431 1432 1433 1434 1434 1435 1436 1437 1438 1439 1440 1441 1442 1443 1445 1446 1447 1449 1450 1451 1452 1453 1454 1455